Find Starlink 5801

NORAD ID: 56005 Int'l Des: 2023-042 Owner: SPXS Country: US Constellation: starlink operational
LEOCIRCULAR

实时位置

正在加载3D地球...

关于 Starlink 5801

正在加载描述...

即将过境

Passes for default location (London). Set your location on the main map for personalized predictions.

高度历史

Loading altitude history...

两行轨道根数

1 56005U 23042V 26121.50002315 .00122833 00000-0 46438-2 0 9991
2 56005 43.0001 125.3400 0000753 301.8853 266.1236 15.25794321 5802
Epoch: May 1, 2026 • Age: 6 hours

当前状态

高度 487.9 km
速度 7.62 km/s
星下点 18.10°N, 153.17°E
发射日期 Mar 24, 2023
运行时间 3.1 years
类型 internet

技术详情

分类 Payload
质量 305.00 kg
干质量 290.00 kg
总质量 305.00 kg
长度 0.20 m
直径 2.80 m
跨度 9.00 m
形状 Box + pan
制造商 SPXS
平台类型 Starlink
阶段状态 In Orbit
所有者/国家 SPXS/US

Most Searched